User: anonymous   Login
Location: CNYAC Observatory
(43.2150°N, 74.9500°W)
Time: 09:20:28
(UTC-04:00)
Language:

Cosmos 1300 Rocket - Orbit

View from above orbital plane
View from above orbital plane
View from above satellite
View from above satellite

Ground track
Ground track

The orbit data is extracted from the following two-line orbital elements,

1 12786U 81082B   14305.06778878  .00000447  00000-0  50397-4 0   306
2 12786 082.4870 151.4809 0018188 175.7256 184.4118 14.84224420792514
Epoch (UTC): 01 November 2014 01:37:36
Eccentricity: 0.0018188
inclination: 82.4870°
perigee height: 603 km
apogee height: 629 km
right ascension of ascending node: 151.4809°
argument of perigee: 175.7256°
revolutions per day: 14.84224420
mean anomaly at epoch: 184.4118°
orbit number at epoch: 79251

The dashed part of the orbit path shows where the satellite is in the earth's shadow,  

DLR